TimeEST,TemperatureF,Dew PointF,Humidity,Sea Level PressureIn,VisibilityMPH,Wind Direction,Wind SpeedMPH,Gust SpeedMPH,PrecipitationIn,Events,Conditions,WindDirDegrees,DateUTC
12:16 AM,44.6,26.6,49,29.81,10.0,SW,9.2,-,N/A,,Overcast,230,2008-01-01 05:16:00
12:36 AM,46.4,26.6,46,29.79,10.0,SW,8.1,23.0,N/A,,Overcast,230,2008-01-01 05:36:00
12:56 AM,46.4,26.6,46,29.80,10.0,WSW,10.4,18.4,N/A,,Overcast,240,2008-01-01 05:56:00
1:16 AM,46.4,30.2,53,29.81,10.0,WSW,24.2,38.0,N/A,,Light Drizzle,250,2008-01-01 06:16:00
1:36 AM,41.0,33.8,76,29.85,5.0,West,10.4,29.9,N/A,Rain,Rain,260,2008-01-01 06:36:00
1:56 AM,39.2,33.8,81,29.85,10.0,WSW,15.0,23.0,N/A,Rain,Light Rain,250,2008-01-01 06:56:00
2:16 AM,41.0,32.0,70,29.85,10.0,WSW,17.3,24.2,N/A,,Overcast,240,2008-01-01 07:16:00
2:36 AM,39.2,32.0,75,29.86,10.0,WSW,13.8,21.9,N/A,,Overcast,240,2008-01-01 07:36:00
2:56 AM,39.2,32.0,75,29.86,10.0,WSW,17.3,23.0,N/A,,Mostly Cloudy,240,2008-01-01 07:56:00
3:16 AM,39.2,32.0,75,29.86,10.0,WSW,16.1,21.9,N/A,,Mostly Cloudy,240,2008-01-01 08:16:00
3:36 AM,39.2,30.2,70,29.87,10.0,WSW,12.7,24.2,N/A,,Mostly Cloudy,250,2008-01-01 08:36:00
3:56 AM,37.4,30.2,75,29.89,10.0,WSW,17.3,23.0,N/A,,Overcast,250,2008-01-01 08:56:00
4:16 AM,37.4,26.6,65,29.91,10.0,WSW,17.3,26.5,N/A,,Overcast,250,2008-01-01 09:16:00
4:36 AM,35.6,26.6,70,29.93,10.0,WSW,20.7,28.8,N/A,,Overcast,240,2008-01-01 09:36:00
4:56 AM,35.6,24.8,65,29.94,10.0,WSW,20.7,27.6,N/A,,Overcast,240,2008-01-01 09:56:00
5:16 AM,35.6,23.0,60,29.95,10.0,WSW,15.0,26.5,N/A,,Overcast,240,2008-01-01 10:16:00
5:36 AM,35.6,24.8,65,29.96,10.0,WSW,15.0,21.9,N/A,,Overcast,250,2008-01-01 10:36:00
5:56 AM,35.6,24.8,65,29.97,10.0,WSW,16.1,23.0,N/A,,Overcast,240,2008-01-01 10:56:00
6:16 AM,35.6,23.0,60,29.98,10.0,WSW,11.5,23.0,N/A,,Overcast,250,2008-01-01 11:16:00
6:36 AM,35.6,23.0,60,29.99,10.0,WSW,9.2,16.1,N/A,,Overcast,250,2008-01-01 11:36:00
7:16 AM,35.6,23.0,60,30.00,10.0,West,9.2,17.3,N/A,,Overcast,270,2008-01-01 12:16:00
7:36 AM,33.8,23.0,65,30.00,10.0,WSW,20.7,25.3,N/A,,Overcast,240,2008-01-01 12:36:00
8:16 AM,35.6,23.0,60,30.01,10.0,WSW,15.0,25.3,N/A,,Overcast,250,2008-01-01 13:16:00
8:36 AM,33.8,23.0,65,30.01,10.0,WSW,13.8,28.8,N/A,,Overcast,250,2008-01-01 13:36:00
8:56 AM,33.8,21.2,60,30.02,10.0,WSW,16.1,28.8,N/A,,Overcast,250,2008-01-01 13:56:00
9:16 AM,33.8,21.2,60,30.03,10.0,West,13.8,24.2,N/A,,Overcast,270,2008-01-01 14:16:00
9:36 AM,33.8,21.2,60,30.04,10.0,WSW,13.8,24.2,N/A,,Overcast,250,2008-01-01 14:36:00
9:56 AM,33.8,21.2,60,30.04,10.0,West,15.0,21.9,N/A,,Overcast,260,2008-01-01 14:56:00
10:16 AM,33.8,21.2,60,30.05,10.0,West,9.2,16.1,N/A,,Overcast,260,2008-01-01 15:16:00
10:36 AM,33.8,23.0,65,30.05,10.0,West,8.1,19.6,N/A,,Overcast,260,2008-01-01 15:36:00
10:56 AM,33.8,23.0,65,30.05,10.0,WSW,15.0,20.7,N/A,,Overcast,240,2008-01-01 15:56:00
11:16 AM,33.8,23.0,65,30.06,10.0,WSW,13.8,20.7,N/A,,Overcast,240,2008-01-01 16:16:00
11:36 AM,33.8,23.0,65,30.06,10.0,WSW,9.2,17.3,N/A,,Overcast,250,2008-01-01 16:36:00
11:56 AM,33.8,23.0,65,30.06,10.0,West,8.1,21.9,N/A,,Overcast,260,2008-01-01 16:56:00
12:16 PM,33.8,23.0,65,30.06,10.0,WSW,9.2,19.6,N/A,,Overcast,250,2008-01-01 17:16:00
12:36 PM,33.8,23.0,65,30.06,10.0,WSW,8.1,17.3,N/A,,Overcast,250,2008-01-01 17:36:00
12:56 PM,33.8,23.0,65,30.05,10.0,West,8.1,-,N/A,,Overcast,260,2008-01-01 17:56:00
1:16 PM,32.0,23.0,69,30.06,4.0,West,13.8,23.0,N/A,Snow,Light Snow,260,2008-01-01 18:16:00
1:36 PM,32.0,21.2,64,30.06,10.0,West,12.7,21.9,N/A,,Overcast,260,2008-01-01 18:36:00
1:56 PM,32.0,21.2,64,30.07,10.0,West,8.1,20.7,N/A,,Overcast,270,2008-01-01 18:56:00
2:16 PM,32.0,23.0,69,30.07,4.0,West,6.9,17.3,N/A,Snow,Light Snow,260,2008-01-01 19:16:00
2:36 PM,32.0,26.6,80,30.08,1.0,WSW,15.0,-,N/A,Snow,Light Snow,250,2008-01-01 19:36:00
2:56 PM,32.0,23.0,69,30.09,7.0,West,8.1,17.3,N/A,Snow,Light Snow,270,2008-01-01 19:56:00
3:16 PM,32.0,23.0,69,30.10,4.0,WSW,9.2,16.1,N/A,Snow,Light Snow,250,2008-01-01 20:16:00
3:36 PM,30.2,24.8,80,30.10,1.0,WSW,12.7,17.3,N/A,Snow,Light Snow,250,2008-01-01 20:36:00
3:56 PM,30.2,23.0,75,30.11,3.0,WSW,9.2,18.4,N/A,Snow,Light Snow,250,2008-01-01 20:56:00
4:16 PM,30.2,21.2,69,30.13,7.0,WSW,8.1,19.6,N/A,,Overcast,250,2008-01-01 21:16:00
4:36 PM,30.2,21.2,69,30.14,5.0,West,6.9,-,N/A,Snow,Light Snow,260,2008-01-01 21:36:00
4:56 PM,30.2,21.2,69,30.15,3.0,West,6.9,16.1,N/A,Snow,Light Snow,270,2008-01-01 21:56:00
5:16 PM,30.2,21.2,69,30.16,4.0,WNW,5.8,16.1,N/A,Snow,Light Snow,290,2008-01-01 22:16:00
5:36 PM,28.4,21.2,74,30.16,1.8,West,8.1,-,N/A,Snow,Light Snow,280,2008-01-01 22:36:00
5:56 PM,28.4,19.4,69,30.17,4.0,West,10.4,19.6,N/A,Snow,Light Snow,270,2008-01-01 22:56:00
6:51 PM,26.6,17.6,69,30.19,4.0,West,10.4,18.4,N/A,Snow,Light Snow,260,2008-01-01 23:51:00
7:11 PM,26.6,17.6,69,30.19,4.0,WSW,11.5,20.7,N/A,Snow,Light Snow,240,2008-01-02 00:11:00
7:16 PM,26.6,17.6,69,30.19,4.0,West,10.4,19.6,N/A,Snow,Light Snow,260,2008-01-02 00:16:00
7:36 PM,26.6,17.6,69,30.19,7.0,West,6.9,-,N/A,,Overcast,260,2008-01-02 00:36:00
7:56 PM,26.6,17.6,69,30.19,7.0,WSW,6.9,19.6,N/A,,Overcast,250,2008-01-02 00:56:00
8:16 PM,26.6,17.6,69,30.19,4.0,WSW,10.4,-,N/A,Snow,Light Snow,250,2008-01-02 01:16:00
8:56 PM,26.6,17.6,69,30.19,5.0,WSW,9.2,19.6,N/A,Snow,Light Snow,250,2008-01-02 01:56:00
9:16 PM,26.6,17.6,69,30.19,7.0,WSW,9.2,16.1,N/A,,Overcast,250,2008-01-02 02:16:00
9:56 PM,26.6,8.6,47,30.19,10.0,WSW,12.7,25.3,N/A,,Overcast,250,2008-01-02 02:56:00
10:16 PM,24.8,10.4,54,30.20,10.0,West,10.4,19.6,N/A,,Overcast,270,2008-01-02 03:16:00
10:36 PM,24.8,10.4,54,30.20,10.0,West,6.9,-,N/A,,Overcast,280,2008-01-02 03:36:00
10:56 PM,24.8,10.4,54,30.20,10.0,West,8.1,16.1,N/A,,Overcast,260,2008-01-02 03:56:00
11:16 PM,24.8,10.4,54,30.20,10.0,West,9.2,17.3,N/A,,Overcast,280,2008-01-02 04:16:00
11:36 PM,24.8,10.4,54,30.20,10.0,West,8.1,-,N/A,,Overcast,280,2008-01-02 04:36:00
11:56 PM,23.0,12.2,63,30.20,3.0,WSW,13.8,19.6,N/A,Snow,Light Snow,240,2008-01-02 04:56:00